GW4386 Weather Reports


Display with metric or nautical units.
time (UTC)temp
F
wind
direction
speed
MPH
gust
MPH
rain 1hr
in
rain 24hr
in
rain mn
in
humidity
%
barometer
mb
20260507101602 49 327 5.0 11.0 0.00 0.00 0.00 78 1015.2
20260507101102 49 336 3.0 10.0 0.00 0.00 0.00 78 1015.1
20260507100559 50 33 4.0 15.0 0.00 0.00 0.00 78 1014.9
20260507100504 50 107 4.0 15.0 0.00 0.00 0.00 78 1014.9
20260507095559 49 71 4.0 12.0 0.00 0.00 0.00 79 1015.0
20260507095100 49 51 7.0 12.0 0.00 0.00 0.00 80 1014.9
20260507094600 49 22 7.0 12.0 0.00 0.00 0.00 80 1015.0
20260507094103 49 31 6.0 12.0 0.00 0.00 0.00 80 1015.0
20260507093559 48 329 1.0 10.0 0.00 0.00 0.00 81 1015.0
20260507093059 48 336 5.0 12.0 0.00 0.00 0.00 81 1015.0
20260507092559 48 42 5.0 12.0 0.00 0.00 0.00 81 1015.0
20260507092104 48 15 5.0 11.0 0.00 0.00 0.00 82 1014.8
20260507091600 48 57 3.0 9.0 0.00 0.00 0.00 82 1014.8
20260507091102 47 39 3.0 12.0 0.00 0.00 0.00 83 1014.8
20260507091002 47 329 3.0 12.0 0.00 0.00 0.00 83 1014.9
20260507090600 47 24 4.0 12.0 0.00 0.00 0.00 83 1014.9
20260507090105 47 306 4.0 7.0 0.00 0.00 0.00 83 1014.9
20260507085559 47 296 1.0 6.0 0.00 0.01 0.00 83 1014.8
20260507085100 47 10 3.0 10.0 0.00 0.01 0.00 84 1014.7
20260507084600 47 323 5.0 12.0 0.00 0.01 0.00 84 1014.6
20260507084059 47 36 3.0 12.0 0.00 0.01 0.00 84 1014.5
20260507083603 47 50 2.0 11.0 0.00 0.01 0.00 84 1014.4
20260507083100 46 52 4.0 11.0 0.00 0.01 0.00 84 1014.1
20260507082601 47 324 4.0 11.0 0.00 0.01 0.00 84 1014.1
20260507082100 47 323 3.0 11.0 0.00 0.01 0.00 84 1014.0
20260507081603 47 11 6.0 11.0 0.00 0.01 0.00 84 1013.9
20260507081104 47 23 2.0 9.0 0.00 0.01 0.00 85 1014.0
20260507080600 46 47 4.0 10.0 0.00 0.01 0.00 84 1013.9
20260507080120 47 36 4.0 10.0 0.00 0.01 0.00 84 1013.9
20260507080002 47 56 3.0 9.0 0.00 0.01 0.00 84 1013.9
20260507075602 47 339 4.0 9.0 0.00 0.01 0.00 84 1013.8
20260507075101 46 34 2.0 9.0 0.00 0.01 0.00 84 1013.8
20260507074600 47 32 3.0 11.0 0.00 0.01 0.00 84 1013.7
20260507074100 47 299 3.0 11.0 0.00 0.01 0.00 84 1013.7
20260507073603 47 36 2.0 11.0 0.00 0.01 0.00 84 1013.7
20260507073100 47 59 4.0 12.0 0.00 0.01 0.00 84 1013.7
20260507072602 46 57 5.0 12.0 0.00 0.01 0.00 84 1013.6
20260507072100 46 46 4.0 8.0 0.00 0.01 0.00 85 1013.6
20260507071605 46 317 2.0 9.0 0.00 0.01 0.00 85 1013.6
20260507071100 46 350 4.0 9.0 0.00 0.01 0.00 85 1013.5
20260507070559 46 29 4.0 8.0 0.00 0.01 0.00 85 1013.4
20260507070106 46 16 2.0 7.0 0.00 0.01 0.00 85 1013.4
20260507070002 46 336 2.0 10.0 0.00 0.01 0.00 85 1013.4
20260507065603 46 338 3.0 12.0 0.00 0.01 0.00 85 1013.3
20260507065501 46 10 3.0 12.0 0.00 0.01 0.00 85 1013.3
20260507065059 46 5 5.0 12.0 0.00 0.01 0.00 85 1013.4
20260507064634 46 45 3.0 11.0 0.00 0.01 0.00 85 1013.4
20260507064103 46 298 1.0 6.0 0.00 0.01 0.00 85 1013.4
20260507063600 46 55 3.0 10.0 0.00 0.01 0.00 85 1013.4
20260507063126 46 57 5.0 11.0 0.00 0.01 0.00 86 1013.3
20260507062600 46 54 5.0 11.0 0.00 0.01 0.00 86 1013.4
20260507062100 46 29 4.0 8.0 0.00 0.01 0.00 86 1013.3
20260507061600 46 44 3.0 9.0 0.00 0.01 0.00 86 1013.3
20260507061059 46 321 5.0 9.0 0.00 0.01 0.00 86 1013.3
20260507060559 46 317 3.0 10.0 0.00 0.01 0.00 86 1013.2
20260507060114 46 10 5.0 11.0 0.00 0.01 0.00 86 1013.2
20260507055558 46 38 4.0 12.0 0.00 0.01 0.00 86 1013.1
20260507055057 46 47 4.0 12.0 0.00 0.01 0.00 86 1013.2
20260507054607 45 57 2.0 10.0 0.00 0.01 0.00 86 1013.0
20260507054058 45 53 2.0 10.0 0.00 0.01 0.00 86 1012.9
20260507053558 46 63 1.0 10.0 0.00 0.01 0.00 86 1012.8
20260507053109 46 76 3.0 10.0 0.00 0.01 0.00 86 1012.6
20260507052557 45 39 4.0 10.0 0.00 0.01 0.00 86 1012.6
20260507052058 45 44 4.0 10.0 0.00 0.01 0.00 86 1012.6
20260507051608 45 11 5.0 11.0 0.00 0.01 0.00 86 1012.5
20260507051059 45 53 6.0 11.0 0.00 0.01 0.00 87 1012.3
20260507050600 45 88 4.0 13.0 0.00 0.01 0.00 87 1012.4
20260507050058 45 42 5.0 13.0 0.00 0.01 0.00 87 1012.4
20260507045559 45 315 3.0 9.0 0.00 0.01 0.00 87 1012.4
20260507045058 45 22 4.0 9.0 0.00 0.01 0.00 87 1012.3
20260507044600 45 16 2.0 6.0 0.00 0.01 0.00 87 1012.2
20260507044058 45 326 1.0 6.0 0.00 0.01 0.00 87 1012.1
20260507043559 45 65 3.0 7.0 0.00 0.01 0.00 87 1012.1
20260507043100 45 49 2.0 9.0 0.00 0.01 0.00 87 1012.0
20260507042559 45 43 2.0 9.0 0.00 0.01 0.00 88 1011.9
20260507042058 45 53 3.0 9.0 0.00 0.01 0.00 88 1012.0
20260507041559 45 333 3.0 9.0 0.00 0.01 0.00 88 1011.9
20260507041058 45 51 3.0 9.0 0.00 0.01 0.00 88 1012.0
20260507040559 44 73 2.0 8.0 0.00 0.01 0.00 88 1011.9
20260507040058 44 117 2.0 9.0 0.00 0.01 0.00 88 1011.9
20260507040001 44 52 4.0 9.0 0.00 0.01 0.00 88 1011.8
20260507035600 44 36 2.0 10.0 0.00 0.01 0.00 88 1011.8
20260507035059 44 23 3.0 10.0 0.00 0.01 0.00 88 1011.7
20260507034600 44 54 4.0 12.0 0.00 0.01 0.00 88 1011.7
20260507034059 44 51 5.0 12.0 0.00 0.01 0.00 88 1011.5
20260507033559 44 54 3.0 10.0 0.00 0.01 0.00 88 1011.5
20260507033059 44 54 4.0 10.0 0.00 0.01 0.00 88 1011.5
20260507032600 44 350 3.0 9.0 0.00 0.01 0.00 88 1011.5
20260507032101 44 38 3.0 9.0 0.00 0.01 0.00 88 1011.5
20260507031600 44 41 3.0 9.0 0.00 0.01 0.00 88 1011.4
20260507031059 44 327 3.0 9.0 0.00 0.01 0.00 88 1011.3
20260507030559 44 15 3.0 7.0 0.00 0.01 0.00 88 1011.2
20260507025558 44 5 3.0 10.0 0.00 0.01 0.00 88 1011.2
20260507025058 44 24 3.0 11.0 0.00 0.01 0.00 88 1011.1
20260507024558 44 66 5.0 14.0 0.00 0.01 0.00 88 1011.0
20260507024058 44 39 4.0 14.0 0.00 0.01 0.00 88 1011.0
20260507023558 44 49 4.0 11.0 0.00 0.01 0.00 88 1011.0
20260507023058 44 56 3.0 11.0 0.00 0.01 0.00 88 1010.9
20260507022559 44 323 3.0 8.0 0.00 0.01 0.00 88 1010.8
20260507022100 45 317 3.0 8.0 0.00 0.01 0.00 88 1010.8
20260507021559 45 19 4.0 11.0 0.00 0.01 0.00 88 1010.7
20260507021058 45 321 4.0 11.0 0.00 0.01 0.00 88 1010.6
20260507020558 45 36 2.0 12.0 0.00 0.01 0.00 88 1010.8
20260507020118 45 44 4.0 9.0 0.00 0.01 0.00 88 1010.8
20260507020002 45 33 4.0 9.0 0.00 0.01 0.00 88 1010.8
20260507015559 45 64 1.0 9.0 0.00 0.01 0.00 88 1010.8
20260507015059 45 36 1.0 10.0 0.00 0.01 0.00 88 1010.8
20260507014602 45 315 3.0 10.0 0.00 0.01 0.00 92 1010.7
20260507014059 45 64 3.0 10.0 0.00 0.01 0.00 92 1010.7
20260507013558 45 338 3.0 8.0 0.00 0.01 0.00 88 1010.7
20260507013059 45 313 1.0 8.0 0.00 0.01 0.00 88 1010.7
20260507012602 45 18 3.0 8.0 0.00 0.01 0.00 88 1010.7
20260507012100 45 338 3.0 6.0 0.00 0.01 0.00 88 1010.8
20260507011559 45 15 2.0 8.0 0.00 0.01 0.00 88 1010.7
20260507011059 45 15 2.0 8.0 0.00 0.01 0.00 88 1010.7
20260507010600 45 40 2.0 5.0 0.00 0.01 0.00 88 1010.7
20260507010114 45 77 0.0 4.0 0.00 0.01 0.00 88 1010.7
20260507005558 45 326 2.0 5.0 0.00 0.02 0.00 88 1010.6
20260507005057 45 317 3.0 5.0 0.00 0.02 0.00 88 1010.6
20260507004558 45 12 1.0 5.0 0.00 0.02 0.00 88 1010.7
20260507004059 45 315 1.0 5.0 0.00 0.02 0.00 88 1010.8
20260507003559 45 34 1.0 5.0 0.00 0.02 0.00 88 1010.7
20260507003058 45 50 2.0 5.0 0.00 0.02 0.00 88 1010.7
20260507002558 45 51 2.0 5.0 0.00 0.02 0.00 88 1010.7
20260507002058 45 52 2.0 6.0 0.00 0.02 0.00 88 1010.7
20260507001605 45 40 3.0 6.0 0.00 0.02 0.00 88 1010.7
20260507001058 45 54 3.0 6.0 0.00 0.02 0.00 88 1010.7
20260507000601 45 47 3.0 9.0 0.00 0.02 0.00 88 1010.6
20260507000059 45 18 4.0 9.0 0.00 0.02 0.00 88 1010.6
20260506235557 45 17 1.0 5.0 0.00 0.06 0.00 88 1010.6
20260506235100 45 19 3.0 5.0 0.00 0.06 0.00 88 1010.6
20260506234600 45 47 3.0 6.0 0.00 0.06 0.00 88 1010.6
20260506234057 45 36 1.0 7.0 0.00 0.06 0.00 88 1010.6
20260506233559 46 45 1.0 7.0 0.00 0.06 0.00 88 1010.6
20260506233100 46 43 4.0 8.0 0.00 0.06 0.00 88 1010.6
20260506232602 46 70 2.0 7.0 0.00 0.06 0.00 88 1010.6
20260506232059 46 51 3.0 6.0 0.00 0.06 0.00 88 1010.5
20260506231611 46 63 3.0 6.0 0.00 0.06 0.00 88 1010.6
20260506231059 46 46 2.0 6.0 0.00 0.06 0.00 88 1010.6
20260506230558 46 82 2.0 5.0 0.00 0.06 0.00 88 1010.4
20260506230116 46 63 1.0 5.0 0.00 0.06 0.00 88 1010.0
20260506225600 46 49 1.0 7.0 0.00 0.06 0.00 88 1010.0
20260506225059 46 350 2.0 9.0 0.00 0.06 0.00 88 1009.9
20260506224603 46 302 4.0 9.0 0.00 0.06 0.00 88 1009.8
20260506224101 46 299 2.0 6.0 0.00 0.06 0.00 88 1009.8
20260506223600 46 18 3.0 6.0 0.00 0.06 0.00 88 1009.7
20260506223103 46 214 2.0 8.0 0.00 0.06 0.00 88 1009.7
20260506222600 46 10 4.0 9.0 0.00 0.06 0.00 88 1009.7
20260506222100 47 335 2.0 7.0 0.00 0.06 0.00 88 1009.7
20260506221631 47 36 0.0 9.0 0.00 0.06 0.00 88 1009.8
20260506221501 47 38 0.0 9.0 0.00 0.06 0.00 88 1009.7
20260506221100 47 320 3.0 9.0 0.00 0.06 0.00 88 1009.7
20260506220600 47 328 2.0 9.0 0.00 0.06 0.00 88 1009.7
20260506220133 47 344 4.0 9.0 0.00 0.06 0.00 88 1009.7
20260506220005 47 33 2.0 7.0 0.00 0.06 0.06 88 1009.7
20260506215600 47 16 1.0 7.0 0.00 0.06 0.06 88 1009.6
20260506215059 47 323 3.0 6.0 0.00 0.06 0.06 88 1009.6
20260506214600 47 78 1.0 5.0 0.00 0.06 0.06 88 1009.7
20260506214101 47 50 3.0 8.0 0.00 0.06 0.06 88 1009.6
20260506213600 47 342 3.0 9.0 0.00 0.06 0.06 88 1009.7
20260506213111 47 15 4.0 9.0 0.00 0.06 0.06 88 1009.6
20260506212601 47 317 3.0 6.0 0.00 0.06 0.06 87 1009.7
20260506212104 47 331 1.0 9.0 0.00 0.06 0.06 87 1009.8
20260506212001 47 103 0.0 9.0 0.00 0.06 0.06 87 1009.8
20260506211601 47 46 3.0 9.0 0.00 0.06 0.06 87 1009.6
20260506211101 47 33 0.0 5.0 0.00 0.06 0.06 87 1009.6
20260506210601 47 64 1.0 6.0 0.00 0.06 0.06 87 1009.5
20260506210106 47 9 2.0 8.0 0.00 0.06 0.06 87 1009.6
20260506210009 47 53 2.0 8.0 0.00 0.06 0.06 87 1009.6
20260506205559 48 319 3.0 8.0 0.00 0.06 0.06 87 1009.6
20260506205059 48 346 2.0 8.0 0.00 0.06 0.06 87 1009.6
20260506204607 48 304 1.0 7.0 0.00 0.06 0.06 87 1009.4
20260506204059 48 36 3.0 8.0 0.00 0.06 0.06 87 1009.4
20260506203559 48 306 3.0 6.0 0.00 0.06 0.06 87 1009.3
20260506203002 48 47 1.0 5.0 0.00 0.06 0.06 87 1009.4
20260506202559 48 100 0.0 8.0 0.00 0.06 0.06 87 1009.3
20260506202058 48 310 2.0 8.0 0.00 0.06 0.06 87 1009.3
20260506201600 49 297 1.0 5.0 0.00 0.06 0.06 87 1009.2
20260506201059 49 36 2.0 5.0 0.00 0.06 0.06 86 1009.1
20260506200559 49 319 0.0 4.0 0.00 0.06 0.06 86 1009.2
20260506200100 49 292 1.0 4.0 0.00 0.06 0.06 86 1009.1
20260506200002 49 303 1.0 4.0 0.00 0.06 0.06 86 1009.1
20260506195600 49 342 0.0 3.0 0.00 0.06 0.06 86 1009.1
20260506195006 49 301 0.0 3.0 0.00 0.06 0.06 86 1009.1
20260506194600 49 82 1.0 4.0 0.00 0.06 0.06 86 1009.0
20260506194501 49 51 2.0 4.0 0.00 0.06 0.06 86 1009.0
20260506194100 49 34 2.0 4.0 0.00 0.06 0.06 86 1009.0
20260506194000 49 48 2.0 5.0 0.00 0.06 0.06 86 1009.0
20260506193600 49 63 2.0 6.0 0.00 0.06 0.06 86 1009.0
20260506193111 49 46 2.0 5.0 0.00 0.06 0.06 86 1009.0
20260506192600 50 74 1.0 4.0 0.00 0.06 0.06 86 1009.0
20260506192101 50 40 1.0 6.0 0.00 0.06 0.06 86 1009.0
20260506191628 50 15 3.0 6.0 0.00 0.06 0.06 86 1008.9
20260506191100 50 20 2.0 6.0 0.00 0.06 0.06 86 1008.8
20260506191003 50 26 3.0 8.0 0.00 0.06 0.06 86 1008.8
20260506190501 50 57 2.0 8.0 0.00 0.06 0.06 86 1008.7
20260506190100 50 18 1.0 8.0 0.00 0.06 0.06 86 1008.6
20260506185558 50 23 1.0 8.0 0.00 0.06 0.06 86 1008.7
20260506185058 51 329 1.0 6.0 0.00 0.06 0.06 86 1008.5
20260506184632 51 347 1.0 6.0 0.00 0.06 0.06 86 1008.4
20260506184102 51 295 2.0 9.0 0.00 0.06 0.06 86 1008.3
20260506184009 51 9 1.0 9.0 0.00 0.06 0.06 86 1008.3
20260506183604 52 257 2.0 8.0 0.00 0.06 0.06 86 1008.2
20260506183111 52 23 2.0 6.0 0.00 0.06 0.06 85 1008.2
20260506182559 52 55 3.0 6.0 0.00 0.06 0.06 86 1008.0
20260506182059 52 28 3.0 6.0 0.00 0.06 0.06 86 1008.0
20260506181602 52 22 2.0 5.0 0.00 0.06 0.06 86 1008.0
20260506181059 52 300 2.0 5.0 0.00 0.06 0.06 86 1008.0
20260506180559 53 305 1.0 6.0 0.00 0.06 0.06 86 1008.0
20260506180059 53 19 2.0 6.0 0.00 0.06 0.06 86 1008.0
20260506180002 53 350 3.0 6.0 0.00 0.06 0.06 86 1008.0
20260506175501 54 308 3.0 8.0 0.00 0.06 0.06 85 1007.9
20260506175059 54 63 3.0 8.0 0.00 0.06 0.06 85 1007.9
20260506174601 55 336 2.0 5.0 0.00 0.06 0.06 85 1007.9
20260506174103 55 345 1.0 4.0 0.00 0.06 0.06 85 1007.8
20260506173603 56 306 0.0 3.0 0.00 0.06 0.06 85 1007.7
20260506173501 56 290 0.0 3.0 0.00 0.06 0.06 85 1007.6
20260506173101 56 304 0.0 3.0 0.00 0.06 0.06 84 1007.6
20260506172600 56 44 1.0 3.0 0.00 0.06 0.06 84 1007.5
20260506172059 56 76 0.0 4.0 0.00 0.06 0.06 84 1007.5
20260506171608 56 43 1.0 5.0 0.00 0.06 0.06 83 1007.5
20260506171501 56 329 0.0 5.0 0.00 0.06 0.06 83 1007.6
20260506171100 57 38 2.0 5.0 0.00 0.06 0.06 82 1007.5
20260506171002 57 44 3.0 5.0 0.00 0.06 0.06 82 1007.5
20260506170559 57 46 0.0 5.0 0.00 0.06 0.06 82 1007.4
20260506170002 58 36 2.0 5.0 0.00 0.06 0.06 82 1007.3
20260506165603 58 317 1.0 7.0 0.00 0.06 0.06 82 1007.2
20260506165059 58 50 5.0 7.0 0.00 0.06 0.06 82 1007.1
20260506164600 58 340 1.0 5.0 0.00 0.06 0.06 82 1007.1
20260506164100 58 349 2.0 6.0 0.00 0.06 0.06 82 1007.1
20260506163600 58 13 3.0 9.0 0.00 0.06 0.06 83 1007.1
20260506163109 58 70 4.0 9.0 0.00 0.06 0.06 83 1007.1
20260506162501 58 342 3.0 7.0 0.00 0.06 0.06 83 1007.0
20260506162102 57 51 2.0 9.0 0.00 0.06 0.06 84 1007.0
20260506161501 57 62 5.0 9.0 0.00 0.06 0.06 83 1007.0
20260506161002 58 50 4.0 7.0 0.00 0.06 0.06 83 1007.0
20260506160601 58 331 2.0 8.0 0.00 0.06 0.06 83 1007.0
20260506160109 58 343 2.0 7.0 0.00 0.06 0.06 83 1006.9
20260506160002 58 17 3.0 7.0 0.00 0.06 0.06 83 1006.9
20260506155559 59 36 3.0 9.0 0.00 0.06 0.06 83 1006.8
20260506155503 59 61 2.0 9.0 0.00 0.06 0.06 83 1006.8
20260506155102 59 44 4.0 9.0 0.00 0.06 0.06 82 1006.7
20260506154600 59 25 3.0 8.0 0.00 0.06 0.06 82 1006.8
20260506154102 60 50 4.0 9.0 0.00 0.06 0.06 82 1006.7
20260506153600 60 78 4.0 9.0 0.00 0.06 0.06 81 1006.7
20260506153501 60 50 5.0 9.0 0.00 0.06 0.06 81 1006.7
20260506153100 60 48 4.0 8.0 0.00 0.06 0.06 81 1006.7
20260506153001 60 53 4.0 7.0 0.00 0.06 0.06 81 1006.7
20260506152559 60 47 5.0 7.0 0.00 0.06 0.06 80 1006.7
20260506152100 60 54 3.0 7.0 0.00 0.06 0.06 81 1006.7
20260506151601 60 34 4.0 8.0 0.00 0.06 0.06 81 1006.7
20260506151100 60 48 3.0 6.0 0.00 0.06 0.06 81 1006.8
20260506150600 60 65 4.0 6.0 0.00 0.06 0.06 81 1006.8
20260506150059 60 96 3.0 6.0 0.00 0.06 0.06 82 1006.8
20260506145600 60 49 4.0 8.0 0.00 0.07 0.06 81 1006.8
20260506145059 60 32 4.0 8.0 0.00 0.07 0.06 81 1006.7
20260506144604 60 23 4.0 6.0 0.00 0.07 0.06 81 1006.8
20260506144001 60 15 2.0 9.0 0.00 0.07 0.06 79 1006.8
20260506143600 61 27 5.0 9.0 0.00 0.07 0.06 78 1006.7
20260506143101 62 42 3.0 5.0 0.00 0.07 0.06 76 1006.8
20260506142559 62 229 0.0 2.0 0.00 0.07 0.06 75 1006.8
20260506142501 62 57 0.0 2.0 0.00 0.07 0.06 76 1006.8
20260506142003 62 207 0.0 2.0 0.00 0.07 0.06 77 1006.8
20260506141600 62 202 0.0 0.0 0.00 0.07 0.06 75 1006.8
20260506141500 62 202 0.0 0.0 0.00 0.07 0.06 75 1006.9
20260506141101 62 126 0.0 3.0 0.00 0.07 0.06 76 1006.8
20260506140600 62 182 0.0 3.0 0.00 0.07 0.06 75 1006.8
20260506140502 62 163 0.0 3.0 0.00 0.07 0.06 75 1006.9
20260506140104 62 146 0.0 3.0 0.00 0.07 0.06 76 1006.7
20260506135558 61 196 0.0 3.0 0.00 0.07 0.06 76 1006.8
20260506135058 61 230 1.0 3.0 0.00 0.07 0.06 76 1006.8
20260506134559 61 202 0.0 6.0 0.00 0.07 0.06 77 1006.9
20260506134059 61 200 2.0 8.0 0.00 0.07 0.06 76 1006.9
20260506133559 61 209 4.0 8.0 0.00 0.07 0.06 76 1007.0
20260506133102 61 215 4.0 10.0 0.00 0.07 0.06 76 1007.0
20260506132600 61 209 3.0 10.0 0.00 0.07 0.06 75 1006.8
20260506132102 62 205 1.0 8.0 0.00 0.07 0.06 75 1006.8
20260506131617 62 187 1.0 8.0 0.00 0.07 0.06 75 1006.8
20260506131100 62 197 4.0 8.0 0.00 0.07 0.06 74 1006.7
20260506130600 62 181 1.0 4.0 0.00 0.07 0.06 75 1006.7
20260506130059 62 205 1.0 4.0 0.00 0.07 0.06 74 1006.7
20260506125502 62 139 0.0 3.0 0.00 0.07 0.06 74 1006.7
20260506125059 62 182 0.0 4.0 0.00 0.07 0.06 74 1006.6
20260506124601 62 212 0.0 3.0 0.00 0.07 0.06 73 1006.6
20260506124101 63 215 0.0 5.0 0.00 0.07 0.06 73 1006.6
20260506123600 63 191 1.0 6.0 0.00 0.07 0.06 73 1006.6
20260506123101 63 217 1.0 8.0 0.00 0.07 0.06 73 1006.6
20260506123001 63 207 0.0 8.0 0.00 0.07 0.06 73 1006.6
20260506122559 63 216 4.0 8.0 0.00 0.07 0.06 72 1006.5
20260506122001 63 121 0.0 4.0 0.00 0.07 0.06 74 1006.6
20260506121602 61 93 0.0 7.0 0.00 0.07 0.06 77 1006.6
20260506121100 61 184 3.0 7.0 0.00 0.07 0.06 77 1006.9
20260506121001 61 188 2.0 7.0 0.00 0.07 0.06 78 1006.9
20260506120604 60 111 2.0 5.0 0.00 0.07 0.06 79 1006.9
20260506115558 60 310 0.0 3.0 0.00 0.07 0.06 80 1006.9
20260506115058 59 38 0.0 2.0 0.00 0.07 0.06 80 1006.9
20260506114559 59 57 0.0 2.0 0.00 0.07 0.06 80 1006.9
20260506114101 59 320 0.0 3.0 0.00 0.07 0.06 80 1006.9
20260506113559 59 182 0.0 3.0 0.00 0.07 0.06 80 1006.9
20260506113100 59 137 0.0 3.0 0.00 0.07 0.06 80 1007.0
20260506112559 59 227 0.0 3.0 0.00 0.07 0.06 80 1006.9
20260506112058 59 305 0.0 1.0 0.00 0.07 0.06 80 1006.8
20260506111559 59 65 0.0 3.0 0.00 0.07 0.06 79 1006.7
20260506111101 59 55 1.0 4.0 0.00 0.07 0.06 79 1006.6
20260506110559 59 41 0.0 4.0 0.00 0.07 0.06 80 1006.6
20260506110059 59 310 0.0 4.0 0.00 0.07 0.06 81 1006.5
20260506105559 59 292 1.0 4.0 0.00 0.07 0.06 80 1006.5
20260506105104 59 319 1.0 4.0 0.00 0.07 0.06 80 1006.4
20260506104607 59 273 0.0 4.0 0.00 0.07 0.06 80 1006.5
20260506104101 59 216 0.0 3.0 0.00 0.07 0.06 78 1006.4
20260506103600 59 53 2.0 4.0 0.00 0.07 0.06 79 1006.4
20260506103100 59 36 2.0 4.0 0.00 0.07 0.06 79 1006.4
20260506102601 59 317 0.0 4.0 0.00 0.07 0.06 79 1006.4
20260506102059 59 40 0.0 2.0 0.00 0.07 0.06 79 1006.4